Ashtabula, OH

2:36 PM EDT on April 27, 2017 (GMT -0400)
Ashtabula County

Weather History for KHZY - February, 2013

Change the Weather History Date:

Thursday, February 7, 2013

  Actual Average (KGKJ) Record (KGKJ)
Temperature  
Mean Temperature 26 °F -  
Max Temperature 41 °F 30 °F 54 °F (2017)
Min Temperature 12 °F 12 °F -9 °F (1988)
Degree Days  
Heating Degree Days 38    
Moisture  
Dew Point 16 °F    
Average Humidity 58    
Maximum Humidity 70    
Minimum Humidity 41    
Precipitation  
Precipitation 0.00 in - - ()
Sea Level Pressure  
Sea Level Pressure 30.18 in    
Wind  
Wind Speed 6 mph (SE)    
Max Wind Speed 15 mph    
Max Gust Speed 20 mph    
Visibility 10 miles    
Events      
Averages and records for this station are not official NWS values.
T = Trace of Precipitation, MM = Missing Value Source: NWS Daily Summary

Daily Weather History Graph

Daily Weather History Graph

Search for Another Location

Airport or City:

Trip Planner

Search our weather history database for the weather conditions in past years. The results will help you decide how hot, cold, wet, or windy it might be!

Date:

Astronomy

Feb. 07, 2013 Rise Set
Actual Time 7:28 AM EST 5:46 PM EST
Civil Twilight 6:59 AM EST 6:15 PM EST
Nautical Twilight 6:26 AM EST 6:48 PM EST
Astronomical Twilight 5:53 AM EST 7:20 PM EST
Moon 5:07 AM EST (2/7) 3:07 PM EST (2/7)
Length of Visible Light 11h 16m
Length of Day
10h 18m
Waning Crescent, 9% of the Moon is Illuminated
Feb 7
Waning Crescent
Feb 10
New
Feb 17
First Quarter
Feb 25
Full
Mar 4
Last Quarter

Hourly Weather History & Observations

Time (EST) Temp. Windchill Dew Point Humidity Pressure Visibility Wind Dir Wind Speed Gust Speed Precip Events Conditions
12:53 AM 12.9 °F 2.6 °F 3.9 °F 67% 30.31 in 10.0 mi SE 6.9 mph - N/A   Clear
1:53 AM 12.0 °F - 3.9 °F 70% 30.34 in 10.0 mi Calm Calm - N/A   Mostly Cloudy
2:53 AM 18.0 °F 6.9 °F 8.1 °F 65% 30.34 in 10.0 mi SSE 9.2 mph - N/A   Overcast
3:53 AM 17.1 °F - 8.1 °F 68% 30.34 in 10.0 mi Calm Calm - N/A   Overcast
4:53 AM 19.0 °F 13.9 °F 10.0 °F 68% 30.29 in 10.0 mi ESE 3.5 mph - N/A   Overcast
5:53 AM 21.0 °F 16.2 °F 10.9 °F 65% 30.32 in 10.0 mi ESE 3.5 mph - N/A   Overcast
6:53 AM 21.9 °F 13.4 °F 10.9 °F 63% 30.33 in 10.0 mi SE 6.9 mph - N/A   Overcast
7:53 AM 21.9 °F 12.5 °F 10.9 °F 63% 30.32 in 10.0 mi SE 8.1 mph - N/A   Overcast
8:53 AM 24.1 °F 15.2 °F 12.0 °F 60% 30.32 in 10.0 mi SSE 8.1 mph - N/A   Overcast
9:53 AM 27.0 °F 18.7 °F 14.0 °F 58% 30.29 in 10.0 mi SSE 8.1 mph - N/A   Overcast
11:53 AM 34.0 °F 27.2 °F 15.1 °F 46% 30.24 in 10.0 mi SE 8.1 mph - N/A   Scattered Clouds
12:53 PM 35.1 °F 28.6 °F 17.1 °F 48% 30.20 in 10.0 mi SSE 8.1 mph - N/A   Overcast
1:53 PM 37.9 °F 30.9 °F 19.9 °F 48% 30.16 in 10.0 mi SE 10.4 mph - N/A   Overcast
2:53 PM 39.9 °F 34.5 °F 21.0 °F 47% 30.14 in 10.0 mi SSE 8.1 mph - N/A   Partly Cloudy
3:53 PM 41.0 °F 33.9 °F 19.0 °F 41% 30.10 in 10.0 mi SE 12.7 mph - N/A   Partly Cloudy
4:53 PM 41.0 °F - 21.0 °F 45% 30.09 in 10.0 mi Calm Calm - N/A   Overcast
5:53 PM 39.9 °F 34.5 °F 21.9 °F 49% 30.06 in 10.0 mi SE 8.1 mph - N/A   Mostly Cloudy
6:53 PM 37.0 °F 31.6 °F 21.9 °F 54% 30.05 in 10.0 mi ESE 6.9 mph - N/A   Partly Cloudy
7:53 PM 36.0 °F 31.1 °F 21.9 °F 57% 30.04 in 10.0 mi SE 5.8 mph - N/A   Clear
8:53 PM 36.0 °F 29.6 °F 21.9 °F 57% 30.02 in 10.0 mi SE 8.1 mph - N/A   Clear
9:53 PM 34.0 °F 26.0 °F 21.9 °F 61% 29.98 in 10.0 mi SE 10.4 mph - N/A   Clear
10:53 PM 34.0 °F 24.2 °F 21.9 °F 61% 29.97 in 10.0 mi SSE 15.0 mph 19.6 mph N/A   Mostly Cloudy
11:53 PM 34.0 °F 25.0 °F 23.0 °F 64% 29.93 in 10.0 mi SSE 12.7 mph - N/A   Mostly Cloudy